Tracking 19854 objects as of 23-Sep-2019
HD Live streaming from Space Station
objects crossing your sky now

FENGYUN 1C DEB

Track FENGYUN 1C DEB now!
10-day predictions


NORAD ID: 32363
Int'l Code: 1999-025CZG
Perigee: 496.9 km
Apogee: 811.9 km
Inclination: 98.4 °
Period: 97.7 minutes
Semi major axis: 7025 km
RCS: 0.013 m2 (small)
Launch date: May 10, 1999
Source: People's Republic of China (PRC)
Launch site: Taiyaun Space Center, China (TSC)

Note: This is SATELLITE DEBRIS
aabbcc
Your satellite tracking list
Your tracking list is empty




NASA's NSSDC Master Catalog

Two Line Element Set (TLE):
1 32363U 99025CZG 19264.36177504  .00000384  00000-0  46557-4 0  9993
2 32363  98.4130  53.7632 0224189 328.1039  30.6754 14.74336180639136
Source of the keplerian elements: AFSPC